Zurück zum Katalog

QZS-6

AktivNavigationGEO
NORAD 62876·PAYLOAD·🇯🇵 Japan

Gestartet Feb 2, 2025 von Tanegashima Space Center

Loading…

TLE

AktuellSource: CelesTrak SupGP

Epoche: Sep 13, 2026, 00:00 UTC

1 62876C 25023A   26256.00000000 -.00000143  00000+0  00000+0 0  2565
2 62876   0.0418  73.1354 0001649 110.3453 259.0041  1.00270348    11

Verfolge QZS-6 in Echtzeit mit AllMySat

Download on the App Store